Regional Weather Roundup
Issued by NWS

Home | Current Version | Previous Version | Graphics & Text | Print | Product List | Glossary On
Versions: 1 2 3 4 5 6 7 8 9 10 11 12 13 14 15 16 17 18 19 20 21 22 23 24 25 26 27 28 29 30 31 32 33 34 35 36 37 38 39 40 41 42 43 44 45 46 47 48 49 50
000
ASUS43 KLOT 291809
RWRIL

ILLINOIS REGIONAL WEATHER ROUNDUP
NATIONAL WEATHER SERVICE CHICAGO/ROMEOVILLE IL
100 PM CDT MON AUG 29 2016

NOTE: "FAIR" INDICATES FEW OR NO CLOUDS BELOW 12,000 FEET WITH NO
SIGNIFICANT WEATHER AND/OR OBSTRUCTIONS TO VISIBILITY.

* THESE STATIONS ARE NOT UNDER NWS QUALITY CONTROL. THEY ALSO MAY NOT
  REPORT WEATHER SUCH AS PRECIPITATION OR FOG.

ILZ001-002-007-009-015-016-024-291900-
NORTHWEST ILLINOIS

CITY           SKY/WX    TMP DP  RH WIND       PRES   REMARKS
MOLINE         SUNNY     86  74  67 VRB3      30.21F HX  94
6HR MIN TEMP:  70; 6HR MAX TEMP:  86;

STERLING*      MOSUNNY   83  75  77 CALM      30.24F HX  90
SAVANNA*       MOSUNNY   82  73  73 NE3       30.23F HX  88
$$

ILZ003-004-008-010-011-017-018-291900-
NORTH CENTRAL ILLINOIS

CITY           SKY/WX    TMP DP  RH WIND       PRES   REMARKS
ROCKFORD       CLOUDY    83  71  67 SE3       30.25F HX  87
6HR MIN TEMP:  69; 6HR MAX TEMP:  85;

FREEPORT*      CLOUDY    80  72  76 NE5       30.27F HX  83
ROCHELLE*      MOSUNNY   83  74  72 CALM      30.25F HX  90
DE KALB*       MOSUNNY   84  73  69 SE7       30.26F HX  91
$$

ILZ005-006-012>014-019>023-291900-
NORTHEAST ILLINOIS

CITY           SKY/WX    TMP DP  RH WIND       PRES   REMARKS
CHICAGO-OHARE  PTSUNNY   85  70  60 E7        30.23F HX  89
6HR MIN TEMP:  72; 6HR MAX TEMP:  85;

CHICAGO-MIDWAY PTSUNNY   88  69  53 VRB5      30.23F HX  92
6HR MIN TEMP:  74; 6HR MAX TEMP:  88;

AURORA         CLOUDY    86  71  60 S5        30.25S HX  91
6HR MIN TEMP:  70; 6HR MAX TEMP:  87;

LANSING*       SUNNY     84  72  66 S8        30.24F HX  90
JOLIET*        MOSUNNY   86  73  65 SE3       30.24F HX  92
WAUKEGAN       MOSUNNY   78  71  79 E5        30.26F HX  80
6HR MIN TEMP:  68; 6HR MAX TEMP:  79;

DUPAGE AIRPORT CLOUDY    85  71  63 SE8       30.24F HX  90
6HR MIN TEMP:  70; 6HR MAX TEMP:  86;

KANKAKEE*      MOSUNNY   84  73  68 E5        30.24F HX  91
WHEELING       MOSUNNY   85  72  65 E6        30.25F HX  91
6HR MIN TEMP:  70; 6HR MAX TEMP:  86;

MORRIS*        SUNNY     85  73  66 SE3       30.23F HX  91
ROMEOVILLE*    MOSUNNY   85  74  70 E3        30.24F HX  93
$$

LMZ740>746-291900-
SOUTHERN LAKE MICHIGAN

STATION/POSITION SKY/WX   TEMP    WIND        PRES    VSBY  WAVE
                          AIR SEA DIR/SP/G                  HT/PER
                          (F)     (DEG/KT/KT) (MB)    (MI)  (FT/S)
SOUTHERN BUOY              75 76  150/  2/  4 1024.2F         0
WILMETTE HARBOR            75 73   40/  4/  8   N/A           1
HARRISON CRIB              77      70/  2/  3   N/A
BURNHAM HARBOR             79      30/  4/  7   N/A
CALUMET HARBOR             76      60/  5/  6 1023.7F
BURNS HARBOR               84     190/  6/ 10 1024.4F
MICHIGAN CITY              82     130/  5/  7   N/A
MICHIGAN CITY 6N           80 77   40/  2/  4   N/A           1
ST. JOSEPH                 79 76  310/  4/  4 1023.8F         0
$$

ILZ025>027-034>036-040-047-049-050-058-095>099-291900-
WEST-CENTRAL ILLINOIS

CITY           SKY/WX    TMP DP  RH WIND       PRES   REMARKS
QUINCY         PTSUNNY   84  72  67 N3        30.20F HX  89
GALESBURG*     MOSUNNY   87  75  66 S6        30.22F HX  96
MACOMB*        CLOUDY    86  75  69 CALM      30.23F HX  95
JACKSONVILLE*  PTSUNNY   88  74  63 E7        30.20F HX  97
PITTSFIELD*    SUNNY     88  75  65 E3        30.21F HX  97
$$

ILZ028>032-037-038-041>044-048-051>054-059>061-291900-
CENTRAL ILLINOIS

CITY           SKY/WX    TMP DP  RH WIND       PRES   REMARKS
PONTIAC        SUNNY     86  77  74 CALM      30.24F HX  97
BLOOMINGTON    PTSUNNY   84  73  70 SE10      30.24F HX  91
DECATUR        SUNNY     86  72  62 MISG      30.23F HX  92
PEORIA         PTSUNNY   86  75  69 CALM      30.22F HX  95
6HR MIN TEMP:  69; 6HR MAX TEMP:  88; 6HR PCP: TRACE;

LACON*         PTSUNNY   84  74  72 E5        30.22F HX  91
LINCOLN*       MOSUNNY   89  76  65 SE5       30.22S HX  99
SPRINGFIELD    SUNNY     91  75  59 VRB6      30.21F HX 101
6HR MIN TEMP:  72; 6HR MAX TEMP:  91;

TAYLORVILLE    SUNNY     87  74  67 SE3       30.22S HX  95
6HR MIN TEMP:  71; 6HR MAX TEMP:  87;

$$

ILZ033-039-045-046-055>057-062-063-291900-
EAST-CENTRAL ILLINOIS

CITY           SKY/WX    TMP DP  RH WIND       PRES   REMARKS
CHAMPAIGN      MOSUNNY   85  72  65 S3        30.24F HX  91
RANTOUL*       SUNNY     86  73  64 S5        30.24S HX  92
MATTOON        SUNNY     85  69  58 E3        30.22F HX  89
PARIS*         SUNNY     85  74  68 CALM      30.23F HX  93
$$

ILZ079-100>102-291900-
SOUTHWEST ILLINOIS

CITY           SKY/WX    TMP DP  RH WIND       PRES   REMARKS
BELLEVILLE     SUNNY     88  74  62 NE3       30.17F HX  97
CAHOKIA*       MOSUNNY   92  71  50 VRB5      30.18F HX  98
SPARTA*        MOSUNNY   88  76  69 E8        30.20F HX  98
$$

ILZ064>066-069>071-074>076-080>082-084>086-088>090-092>094-291900-
SOUTH-CENTRAL ILLINOIS

CITY           SKY/WX    TMP DP  RH WIND       PRES   REMARKS
CARBONDALE     SUNNY     89  73  59 N7        30.18F HX  97
6HR MIN TEMP:  71; 6HR MAX TEMP:  89;

CAIRO*         SUNNY     88  76  68 NE9       30.16F HX  98
EFFINGHAM*     SUNNY     87  75  68 E3        30.23F HX  96
MARION         SUNNY     91  72  52 E6        30.20S HX  98
MT. VERNON     MOSUNNY   88  72  58 E6        30.20F HX  94
CENTRALIA*     SUNNY     88  77  68 CALM      30.19F HX 100
SALEM*         SUNNY     89  74  62 CALM      30.20F HX  98
METROPOLIS*    SUNNY     91  75  60 N7        30.17S HX 101
$$

ILZ067-068-072-073-078-083-087-091-291900-
SOUTHEAST ILLINOIS

CITY           SKY/WX    TMP DP  RH WIND       PRES   REMARKS
LAWRENCEVILLE  SUNNY     88  70  55 VRB5      30.21F HX  93
FLORA*         SUNNY     87  74  64 CALM      30.21F HX  95
FAIRFIELD*     SUNNY     88  70  55 CALM      30.19F HX  92
HARRISBURG*    SUNNY     89  74  60 E5        30.19S HX  98
ROBINSON*      SUNNY     85  71  62 CALM      30.22S HX  90
CARMI*         SUNNY     88  74  62 N5        30.19F HX  96
$$

ABBREVIATIONS USED IN REMARKS
   TC - TEMPERATURE IN CELSIUS
  WCI - WIND CHILL INDEX
   HX - HEAT INDEX
  VSB - VISIBILITY
$$




USA.gov is the U.S. government's official web portal to all federal, state and local government web resources and services.